Location: Quaker Farms
(41.4276°N, 73.1557°W)
Time: 00:28:35
(UTC+00:00)

Vanguard 1 - Pass Details

Date: 16 June 2021
Orbit: 651 x 3831 km, 34.2° (Epoch: 28 July)

Event Time Altitude Azimuth Distance (km) Brightness Sun altitude
Rises 03:05:42 0° 238° (WSW) 7,966 14.6 -20.6°
Reaches altitude 10° 03:11:27 10° 235° (SW) 6,865 14.2 -21.0°
Maximum altitude 03:32:30 57° 164° (SSE) 3,268 12.3 -22.6°
Drops below altitude 10° 03:45:21 10° 91° (E) 4,422 13.2 -23.3°
Sets 03:48:10 0° 87° (E) 5,085 13.6 -23.5°
